| time (UTC) | temp F | wind direction | speed MPH | gust MPH | rain 1hr in | rain 24hr in | rain mn in | humidity % | barometer mb |
| 20260506050313 | 55 | 60 | 3.0 | 0.0 | 0.00 | 0.00 | 0.00 | 87 | 1008.0 |
| 20260506043305 | 55 | 0 | 1.0 | 0.0 | 0.00 | 0.00 | 0.00 | 87 | 1008.0 |
| 20260506040249 | 52 | 0 | 0.0 | 0.0 | 0.00 | 0.00 | 0.00 | 93 | 1007.0 |
| 20260506033223 | 52 | 0 | 3.0 | 0.0 | 0.00 | 0.00 | 0.00 | 100 | 1007.0 |
| 20260506030248 | 52 | 270 | 3.0 | 0.0 | 0.00 | 0.00 | 0.00 | 100 | 1007.0 |
| 20260506023304 | 54 | 0 | 2.0 | 0.0 | 0.00 | 0.00 | 0.00 | 93 | 1007.0 |
| 20260506020314 | 54 | 0 | 1.0 | 0.0 | 0.00 | 0.00 | 0.00 | 100 | 1007.0 |
| 20260506013231 | 54 | 0 | 2.0 | 0.0 | 0.00 | 0.00 | 0.00 | 100 | 1007.0 |
| 20260506010306 | 54 | 0 | 2.0 | 0.0 | 0.00 | 0.00 | 0.00 | 93 | 1007.0 |
| 20260506003237 | 54 | 0 | 1.0 | 0.0 | 0.00 | 0.00 | 0.00 | 93 | 1007.0 |
| 20260506000249 | 54 | 290 | 5.0 | 0.0 | 0.00 | 0.00 | 0.00 | 100 | 1007.0 |
| 20260505233304 | 55 | 290 | 5.0 | 0.0 | 0.00 | 0.00 | 0.00 | 93 | 1007.0 |
| 20260505230306 | 57 | 290 | 6.0 | 0.0 | 0.00 | 0.00 | 0.00 | 87 | 1007.0 |
| 20260505223305 | 57 | 330 | 5.0 | 0.0 | 0.00 | 0.00 | 0.00 | 93 | 1007.0 |
| 20260505220249 | 57 | 350 | 5.0 | 0.0 | 0.00 | 0.00 | 0.00 | 87 | 1007.0 |
| 20260505215904 | 57 | 350 | 5.0 | 0.0 | 0.00 | 0.00 | 0.00 | 87 | 1007.0 |
| 20260505213305 | 59 | 270 | 3.0 | 0.0 | 0.00 | 0.00 | 0.00 | 82 | 1007.0 |
| 20260505210306 | 59 | 0 | 2.0 | 0.0 | 0.00 | 0.00 | 0.00 | 82 | 1006.0 |
| 20260505205812 | 59 | 0 | 2.0 | 0.0 | 0.00 | 0.00 | 0.00 | 82 | 1006.0 |
| 20260505203305 | 64 | 290 | 12.0 | 0.0 | 0.00 | 0.00 | 0.00 | 59 | 1006.0 |
| 20260505200307 | 66 | 270 | 14.0 | 0.0 | 0.00 | 0.00 | 0.00 | 52 | 1005.0 |
| 20260505200018 | 66 | 270 | 14.0 | 0.0 | 0.00 | 0.00 | 0.00 | 52 | 1005.0 |
| 20260505193305 | 64 | 0 | 2.0 | 0.0 | 0.00 | 0.00 | 0.00 | 63 | 1004.0 |
| 20260505190306 | 63 | 0 | 2.0 | 0.0 | 0.00 | 0.00 | 0.00 | 63 | 1003.0 |
| 20260505183238 | 66 | 0 | 1.0 | 0.0 | 0.00 | 0.00 | 0.00 | 59 | 1003.0 |
| 20260505180307 | 68 | 0 | 1.0 | 0.0 | 0.00 | 0.00 | 0.00 | 56 | 1003.0 |
| 20260505173304 | 68 | 0 | 2.0 | 0.0 | 0.00 | 0.00 | 0.00 | 60 | 1003.0 |
| 20260505170306 | 70 | 0 | 2.0 | 0.0 | 0.00 | 0.00 | 0.00 | 49 | 1004.0 |
| 20260505163305 | 70 | 0 | 2.0 | 0.0 | 0.00 | 0.00 | 0.00 | 49 | 1004.0 |
| 20260505160242 | 70 | 40 | 3.0 | 0.0 | 0.00 | 0.00 | 0.00 | 49 | 1004.0 |
| 20260505153245 | 70 | 60 | 6.0 | 0.0 | 0.00 | 0.00 | 0.00 | 52 | 1004.0 |
| 20260505150247 | 70 | 50 | 7.0 | 0.0 | 0.00 | 0.00 | 0.00 | 49 | 1005.0 |
| 20260505140321 | 70 | 50 | 5.0 | 0.0 | 0.00 | 0.00 | 0.00 | 56 | 1005.0 |
| 20260505130255 | 75 | 310 | 7.0 | 0.0 | 0.00 | 0.00 | 0.00 | 33 | 1005.0 |
| 20260505123238 | 79 | 0 | 6.0 | 0.0 | 0.00 | 0.00 | 0.00 | 29 | 1005.0 |
| 20260505120240 | 77 | 300 | 8.0 | 0.0 | 0.00 | 0.00 | 0.00 | 31 | 1005.0 |
| 20260505113237 | 79 | 0 | 7.0 | 0.0 | 0.00 | 0.00 | 0.00 | 31 | 1006.0 |
| 20260505110258 | 77 | 20 | 7.0 | 0.0 | 0.00 | 0.00 | 0.00 | 33 | 1006.0 |
| 20260505100313 | 75 | 0 | 5.0 | 0.0 | 0.00 | 0.00 | 0.00 | 36 | 1007.0 |
| 20260505093304 | 73 | 0 | 3.0 | 0.0 | 0.00 | 0.00 | 0.00 | 40 | 1007.0 |
| 20260505090313 | 73 | 140 | 3.0 | 0.0 | 0.00 | 0.00 | 0.00 | 40 | 1007.0 |
| 20260505083305 | 70 | 70 | 3.0 | 0.0 | 0.00 | 0.00 | 0.00 | 49 | 1007.0 |
| 20260505080252 | 70 | 0 | 2.0 | 0.0 | 0.00 | 0.00 | 0.00 | 49 | 1008.0 |
| 20260505073238 | 66 | 110 | 3.0 | 0.0 | 0.00 | 0.00 | 0.00 | 52 | 1008.0 |
| 20260505070322 | 64 | 100 | 3.0 | 0.0 | 0.00 | 0.00 | 0.00 | 55 | 1008.0 |
| 20260505063237 | 61 | 0 | 2.0 | 0.0 | 0.00 | 0.00 | 0.00 | 67 | 1008.0 |
| 20260505060313 | 59 | 0 | 2.0 | 0.0 | 0.00 | 0.00 | 0.00 | 72 | 1009.0 |